Location: Bailen
(14.1842°N, 120.7958°E)
Time: 04:31:20
(UTC+00:00)

Okean 3 Rocket - Visible Passes

Search period start: 21 April 2026 00:00
Search period end: 01 May 2026 00:00
Orbit: 608 x 638 km, 82.5° (Epoch: 20 April)

Date Brightness Start Highest point End Pass type
(mag) Time Alt. Az. Time Alt. Az. Time Alt. Az.
21 Apr 3.8 20:02:10 10° N 20:06:37 70° E 20:11:04 10° S visible
22 Apr 3.8 20:20:56 10° NNW 20:25:14 48° W 20:28:58 13° SSW visible
23 Apr 6.2 19:03:14 10° NE 19:06:06 17° E 19:07:23 15° ESE visible
23 Apr 4.8 20:40:27 10° NW 20:43:49 21° W 20:44:28 20° WSW visible
24 Apr 5.1 19:20:40 10° NNE 19:24:04 35° ENE 19:24:04 35° ENE visible
25 Apr 5.0 19:38:59 10° N 19:41:16 30° N 19:41:16 30° N visible
26 Apr 5.7 19:57:57 10° NNW 19:58:46 15° NNW 19:58:46 15° NNW visible
